Waarnemingen

Advertentie
Mijn weer
Emden, Duitsland (10200): temperatuur & dauwpunt: 09.08.2018 01:00:00 - 15.08.2018 01:00:00 (CEST)Emden, Duitsland (10200): temperatuur 5cm & temperatuur -5cm: 09.08.2018 01:00:00 - 15.08.2018 01:00:00 (CEST)Emden, Duitsland (10200): temperatuur -20cm & temperatuur -100cm: 09.08.2018 01:00:00 - 15.08.2018 01:00:00 (CEST)Emden, Duitsland (10200): windsnelheid & windstoten: 09.08.2018 01:00:00 - 15.08.2018 01:00:00 (CEST)Emden, Duitsland (10200): windrichting: 09.08.2018 01:00:00 - 15.08.2018 01:00:00 (CEST)Emden, Duitsland (10200): luchtdruk: 09.08.2018 01:00:00 - 15.08.2018 01:00:00 (CEST)Emden, Duitsland (10200): zicht: 09.08.2018 01:00:00 - 15.08.2018 01:00:00 (CEST)Emden, Duitsland (10200): Zonneschijnduur: 09.08.2018 01:00:00 - 15.08.2018 01:00:00 (CEST)Emden, Duitsland (10200): neerslag: 09.08.2018 01:00:00 - 15.08.2018 01:00:00 (CEST)
Datum & Tijd tt [°C] td [°C] tt 5cm [°C] tt -5cm [°C] tt -20cm [°C] tt -100cm [°C] ff [km/u] ff [kn] fx [km/u] fx [kn] dd ppp [hPa] vv [km] sd [min] rr [mm]
15.08.2018 01:00:00 17,3 14,2 16,8 18,6 20,9 19,2 8 4 13 7 ZW 1016,0 58 0 0,0
15.08.2018 00:00:00 16,8 13,9 16,5 18,8 21,0 19,2 8 4 16 9 WZW 1016,0 51 0 0,0
14.08.2018 23:00:00 17,0 13,9 16,1 19,1 21,1 19,2 11 6 18 10 WZW 1015,8 45 0 0,0
14.08.2018 22:00:00 16,8 13,7 15,6 19,5 21,1 19,2 8 5 19 11 WZW 1015,7 56 0 0,0
14.08.2018 21:00:00 17,6 14,0 16,8 20,3 21,2 19,2 15 8 24 13 W 1015,3 50 0 0,0
14.08.2018 20:00:00 18,5 13,3 18,0 21,2 21,1 19,2 17 9 37 20 W 1014,5 53 39 0,0
14.08.2018 19:00:00 20,0 14,2 20,8 22,0 21,0 19,2 25 13 46 25 WNW 1014,2 44 30 0,0
14.08.2018 18:00:00 20,2 14,2 21,5 22,6 20,9 19,3 26 14 51 28 WNW 1013,8 49 40 0,0
14.08.2018 17:00:00 20,3 14,7 22,0 22,5 20,8 19,3 34 18 49 27 W 1013,1 40 34 0,0
14.08.2018 16:00:00 20,3 16,2 21,7 22,2 20,7 19,3 34 19 49 27 W 1012,6 39 30 0,0
14.08.2018 15:00:00 20,2 16,1 20,5 21,3 20,7 19,3 35 19 50 27 W 1011,6 51 4 0,1
14.08.2018 14:00:00 19,2 15,7 19,5 21,3 20,6 19,3 26 14 43 23 W 1011,1 35 1 0,0
14.08.2018 13:00:00 19,2 15,9 19,0 21,6 20,5 19,3 22 12 40 22 W 1010,4 71 0 0,0
14.08.2018 12:00:00 20,0 16,7 22,0 21,7 20,4 19,3 23 12 38 20 W 1009,6 71 32 0,0
14.08.2018 11:00:00 20,4 17,0 22,6 20,6 20,4 19,3 23 12 34 19 WNW 1008,7 75 17 0,1
14.08.2018 10:00:00 18,2 17,2 18,6 19,6 20,4 19,3 12 7 27 14 WZW 1008,1 27 4 0,0
14.08.2018 09:00:00 17,8 16,8 18,2 18,8 20,5 19,3 14 8 24 13 WZW 1007,7 40 0 0,5
14.08.2018 08:00:00 17,4 16,4 17,2 18,5 20,6 19,3 14 7 23 13 WZW 1007,2 2,3 0 0,8
14.08.2018 07:00:00 17,0 16,0 16,6 18,4 20,7 19,3 11 6 21 11 ZW 1006,6 19 0 0,0
14.08.2018 06:00:00 16,8 16,0 16,3 18,4 20,8 19,3 10 5 18 10 ZZW 1006,4 17 0 0,0
14.08.2018 05:00:00 17,0 16,1 16,4 18,6 20,9 19,3 9 5 20 11 ZW 1006,3 12 0 0,0
14.08.2018 04:00:00 16,9 15,9 16,3 18,9 21,0 19,3 9 5 19 11 ZW 1006,3 12 0 0,0
14.08.2018 03:00:00 17,4 16,1 17,1 19,1 21,1 19,3 12 7 20 11 ZW 1006,2 14 0 0,0
14.08.2018 02:00:00 17,3 16,0 16,8 19,3 21,2 19,3 13 7 19 11 ZZW 1006,2 16 0 0,0
14.08.2018 01:00:00 17,7 15,7 17,0 19,5 21,3 19,3 9 5 19 10 ZW 1005,9 21 0 0,0
14.08.2018 00:00:00 17,7 16,0 17,3 19,7 21,4 19,3 9 5 20 11 WZW 1005,8 22 0 0,0
13.08.2018 23:00:00 17,6 16,0 17,2 20,0 21,5 19,3 12 6 23 12 WZW 1005,5 24 0 0,0
13.08.2018 22:00:00 17,6 16,5 17,1 20,6 21,5 19,3 13 7 23 13 WZW 1005,2 19 0 0,0
13.08.2018 21:00:00 18,3 16,9 17,9 21,4 21,5 19,3 14 8 24 13 WZW 1004,5 7 0 0,0
13.08.2018 20:00:00 19,4 17,1 19,6 21,9 21,5 19,3 9 5 16 9 W 1004,1 17 0 0,0
13.08.2018 19:00:00 19,1 17,1 19,5 22,0 21,5 19,3 10 5 20 11 WZW 1004,0 16 3 0,0
13.08.2018 18:00:00 18,8 17,1 19,6 21,8 21,4 19,3 10 5 16 9 ZW 1004,2 19 0 0,0
13.08.2018 17:00:00 17,7 17,5 18,1 21,6 21,3 19,3 14 8 32 18 W 1004,4 11 0 13,7
13.08.2018 16:00:00 20,8 15,5 21,2 24,7 20,9 19,3 18 10 31 17 W 1004,0 38 0 0,0
13.08.2018 15:00:00 24,1 14,3 26,8 25,7 20,6 19,3 16 8 25 13 Z 1003,8 50 52 0,0
13.08.2018 14:00:00 23,9 14,6 28,4 23,4 20,5 19,3 12 6 29 15 Z 1004,5 59 38 0,0
13.08.2018 13:00:00 22,2 14,0 24,1 21,5 20,4 19,3 14 7 25 13 ZZO 1005,0 70 0 0,0
13.08.2018 12:00:00 21,8 14,2 24,3 21,0 20,3 19,3 12 7 17 9 ZZO 1005,2 52 0 0,0
13.08.2018 11:00:00 20,9 13,8 23,2 20,1 20,3 19,3 5 3 16 8 ZZO 1005,2 51 3 0,0
13.08.2018 10:00:00 18,8 15,0 19,5 19,3 20,3 19,3 9 5 15 8 ZO 1005,4 27 0 0,0
13.08.2018 09:00:00 18,4 15,3 18,2 19,0 20,4 19,3 8 4 15 8 ZO 1005,7 25 0 0,0
13.08.2018 08:00:00 17,5 15,1 17,5 18,8 20,4 19,3 4 2 6 4 NO 1005,5 21 0 0,0
13.08.2018 07:00:00 17,1 15,4 16,2 18,7 20,5 19,3 4 2 7 4 ZZO 1005,7 20 0 0,0
13.08.2018 06:00:00 17,1 15,2 16,3 18,7 20,6 19,4 0 0 6 4 N 1006,1 26 0 0,0
13.08.2018 05:00:00 16,5 15,2 16,0 18,8 20,6 19,4 6 3 10 5 O 1006,4 25 0 0,0
13.08.2018 04:00:00 16,7 15,1 15,8 18,9 20,7 19,4 3 1 9 5 NO 1007,1 31 0 0,0
13.08.2018 03:00:00 16,8 15,0 15,9 19,0 20,8 19,4 4 2 8 4 ONO 1007,7 37 0 0,0
13.08.2018 02:00:00 16,7 14,9 15,3 19,1 20,8 19,4 3 1 8 4 NO 1008,3 38 0 0,0
13.08.2018 01:00:00 16,8 14,7 15,2 19,3 20,9 19,4 6 3 8 4 ONO 1008,9 37 0 0,0
13.08.2018 00:00:00 17,7 14,7 15,2 19,7 20,9 19,4 5 3 9 5 NNO 1009,2 48 0 0,0
12.08.2018 23:00:00 18,6 14,9 17,2 20,2 20,9 19,4 8 4 11 6 N 1009,8 60 0 0,0
12.08.2018 22:00:00 18,9 15,2 17,6 20,7 20,8 19,4 5 3 7 4 OZO 1010,1 35 0 0,0
12.08.2018 21:00:00 21,6 14,4 19,3 21,1 20,8 19,4 3 2 13 7 ZZW 1010,3 66 0 0,0
12.08.2018 20:00:00 22,9 13,0 22,2 21,5 20,6 19,4 8 4 21 11 WZW 1010,5 75 0 0,0
12.08.2018 19:00:00 23,6 13,2 23,8 21,8 20,5 19,4 10 5 24 13 WZW 1010,9 75 4 0,0
12.08.2018 18:00:00 23,7 12,4 24,1 22,1 20,3 19,4 14 7 31 17 WZW 1011,4 75 27 0,0
12.08.2018 17:00:00 24,6 13,1 26,4 21,7 20,2 19,4 18 10 32 17 ZW 1011,9 75 18 0,0
12.08.2018 16:00:00 24,1 12,7 26,1 21,4 20,0 19,4 18 10 35 19 ZZW 1012,7 63 15 0,0
12.08.2018 15:00:00 22,9 12,4 23,8 21,0 19,9 19,4 19 10 42 23 ZW 1013,3 75 3 0,0
12.08.2018 14:00:00 21,6 13,4 23,1 20,3 19,8 19,4 17 9 34 19 Z 1013,8 60 0 0,0
12.08.2018 13:00:00 19,6 12,7 20,8 19,7 19,7 19,4 14 8 27 15 Z 1014,5 52 0 0,0
12.08.2018 12:00:00 17,6 11,9 19,3 18,7 19,7 19,4 12 7 22 12 ZZO 1015,2 53 0 0,0
12.08.2018 11:00:00 16,8 11,1 17,9 18,3 19,7 19,4 13 7 24 13 ZZW 1015,9 42 0 0,0
12.08.2018 10:00:00 16,7 10,7 18,0 17,6 19,7 19,4 12 7 22 12 Z 1016,0 55 0 0,0
12.08.2018 09:00:00 15,0 10,8 15,7 16,7 19,8 19,4 8 4 15 8 Z 1016,6 49 0 0,0
12.08.2018 08:00:00 13,3 10,2 13,9 16,1 19,9 19,4 9 5 15 8 Z 1016,9 46 0 0,0
12.08.2018 07:00:00 12,9 10,4 12,4 15,7 20,0 19,4 8 4 12 6 ZZO 1017,5 44 0 0,0
12.08.2018 06:00:00 12,3 10,7 11,1 15,8 20,2 19,4 6 3 13 7 ZO 1017,6 27 0 0,0
12.08.2018 05:00:00 13,3 10,6 11,6 15,9 20,3 19,4 7 4 12 7 ZZW 1018,1 54 0 0,0
12.08.2018 04:00:00 13,7 10,6 12,0 15,9 20,5 19,4 6 4 10 6 ZW 1018,6 54 0 0,0
12.08.2018 03:00:00 13,1 10,4 9,2 16,1 20,7 19,4 6 3 10 5 ZZW 1018,9 57 0 0,0
12.08.2018 02:00:00 14,0 10,6 10,8 16,3 20,8 19,4 5 3 11 6 ZW 1019,4 57 0 0,0
12.08.2018 01:00:00 12,9 10,4 8,0 16,6 21,0 19,3 5 3 10 5 ZW 1019,9 58 0 0,0
12.08.2018 00:00:00 13,8 10,3 11,5 17,0 21,1 19,4 7 4 15 8 WZW 1020,4 75 0 0,0
11.08.2018 23:00:00 14,2 10,5 12,4 17,6 21,3 19,3 9 5 18 10 WZW 1020,7 60 0 0,0
11.08.2018 22:00:00 14,4 10,3 12,4 18,2 21,4 19,3 9 5 20 11 WZW 1020,8 64 0 0,0
11.08.2018 21:00:00 15,9 11,4 14,3 19,1 21,4 19,3 13 7 27 15 W 1020,6 67 0 0,0
11.08.2018 20:00:00 17,7 11,9 17,3 19,7 21,4 19,3 20 11 30 16 W 1020,4 61 11 0,1
11.08.2018 19:00:00 17,7 11,8 17,6 20,0 21,4 19,3 21 11 34 18 W 1020,6 70 8 0,0
11.08.2018 18:00:00 17,8 12,3 17,9 20,4 21,4 19,3 18 10 36 20 W 1020,3 65 4 0,0
11.08.2018 17:00:00 18,0 11,5 18,0 20,5 21,4 19,3 24 13 36 20 W 1020,1 56 12 0,1
11.08.2018 16:00:00 16,8 13,4 17,1 20,4 21,4 19,3 22 12 43 23 WZW 1020,0 75 14 2,3
11.08.2018 15:00:00 17,4 12,3 18,1 20,9 21,3 19,3 18 10 48 26 W 1019,7 65 7 0,0
11.08.2018 14:00:00 19,8 12,2 22,9 21,1 21,2 19,3 24 13 39 21 W 1019,2 51 27 0,0
11.08.2018 13:00:00 17,1 11,8 16,7 20,9 21,2 19,3 32 17 48 26 W 1019,0 51 38 0,1
11.08.2018 12:00:00 15,4 11,5 16,9 20,0 21,2 19,3 20 11 45 24 NNW 1018,9 21 39 0,0
11.08.2018 11:00:00 17,7 12,8 19,5 18,7 21,3 19,3 27 15 44 24 WZW 1018,3 52 26 0,2
11.08.2018 10:00:00 14,0 11,7 13,8 18,1 21,4 19,3 16 8 37 20 ZW 1017,9 17 1 0,4
11.08.2018 09:00:00 14,5 11,1 14,2 18,0 21,5 19,3 17 9 35 19 ZW 1017,4 23 50 0,0
11.08.2018 08:00:00 13,4 11,4 14,5 17,4 21,7 19,3 18 10 30 16 ZZW 1017,2 40 51 0,0
11.08.2018 07:00:00 12,7 11,2 12,1 17,3 21,8 19,3 19 10 32 17 ZW 1016,9 54 0 0,0
11.08.2018 06:00:00 12,7 11,3 11,9 17,6 22,0 19,3 16 9 34 18 ZZW 1016,6 56 0 0,0
11.08.2018 05:00:00 13,1 11,5 12,3 17,8 22,1 19,3 20 11 40 22 ZZW 1016,5 75 0 0,0
11.08.2018 04:00:00 13,2 11,3 12,5 18,1 22,3 19,3 16 9 37 20 ZZW 1016,4 75 0 0,0
11.08.2018 03:00:00 13,3 11,1 12,5 18,3 22,5 19,3 18 10 38 21 ZZW 1016,5 75 0 0,5
11.08.2018 02:00:00 13,5 11,1 12,5 18,7 22,6 19,3 15 8 34 19 ZZW 1017,0 37 0 0,7
11.08.2018 01:00:00 14,4 12,6 13,6 19,2 22,8 19,3 24 13 44 24 ZW 1017,4 8 0 0,7
11.08.2018 00:00:00 15,2 12,1 13,8 19,6 22,9 19,3 18 10 34 18 ZW 1017,6 28 0 0,4
10.08.2018 23:00:00 15,2 12,5 14,8 19,8 23,0 19,3 18 10 26 14 ZO 1016,9 40 0 0,0
10.08.2018 22:00:00 14,7 12,1 14,1 20,2 23,1 19,3 13 7 19 10 ZO 1017,7 42 0 0,0
10.08.2018 21:00:00 14,7 12,6 13,4 21,0 23,2 19,3 8 4 12 7 OZO 1018,3 17 0 0,0
10.08.2018 20:00:00 16,9 13,0 15,7 21,7 23,2 19,3 9 5 23 13 ZZO 1018,8 16 10 0,0
10.08.2018 19:00:00 18,6 11,5 19,1 22,3 23,2 19,3 13 7 24 13 ZW 1019,0 69 59 0,0
10.08.2018 18:00:00 16,7 12,4 17,9 21,4 23,3 19,3 9 5 16 8 ZW 1019,5 75 18 0,0
10.08.2018 17:00:00 14,2 12,0 13,8 21,3 23,3 19,3 10 6 44 24 ZZW 1020,5 44 0 2,4
10.08.2018 16:00:00 18,4 12,3 18,2 23,2 23,4 19,3 25 13 43 23 W 1020,2 75 31 0,0
10.08.2018 15:00:00 14,6 12,0 15,0 22,4 23,3 19,3 7 4 52 28 Z 1020,1 75 0 1,0
10.08.2018 14:00:00 13,2 11,2 13,2 23,8 23,3 19,3 41 22 59 32 W 1020,0 2,0 12 1,9
10.08.2018 13:00:00 17,4 8,7 19,1 24,2 23,2 19,3 27 15 46 25 W 1019,1 75 20 0,0
10.08.2018 12:00:00 20,3 10,8 24,8 23,3 23,2 19,3 27 14 46 25 ZZW 1018,7 57 54 0,0
10.08.2018 11:00:00 17,9 10,3 21,3 22,0 23,3 19,3 26 14 47 25 ZZW 1018,4 74 42 0,0
10.08.2018 10:00:00 17,6 11,2 20,4 21,1 23,4 19,3 20 11 40 21 ZW 1018,2 75 46 0,0
10.08.2018 09:00:00 16,4 10,0 17,9 20,6 23,5 19,3 21 11 39 21 WZW 1017,3 66 49 0,0
10.08.2018 08:00:00 15,7 10,7 17,0 20,3 23,6 19,3 16 9 32 17 ZW 1016,7 54 14 0,0
10.08.2018 07:00:00 14,6 11,3 13,9 20,6 23,8 19,3 18 10 33 18 WZW 1015,5 44 0 0,0
10.08.2018 06:00:00 14,6 12,8 14,1 21,0 23,9 19,3 27 15 53 29 WZW 1014,3 45 0 0,0
10.08.2018 05:00:00 15,8 13,2 15,5 21,3 24,1 19,2 24 13 55 30 WZW 1013,0 47 0 0,0
10.08.2018 04:00:00 16,2 13,2 15,5 21,6 24,2 19,2 38 21 57 31 WZW 1011,4 18 0 0,0
10.08.2018 03:00:00 17,2 14,8 16,5 21,8 24,3 19,2 21 12 44 24 ZW 1009,8 10 0 0,0
10.08.2018 02:00:00 17,2 14,0 16,4 22,2 24,4 19,2 26 14 59 32 WZW 1008,2 63 0 0,0
10.08.2018 01:00:00 18,0 14,9 17,4 22,6 24,6 19,2 39 21 64 35 WZW 1005,8 35 0 0,0
10.08.2018 00:00:00 19,4 14,9 19,0 22,9 24,7 19,2 31 17 69 38 ZZW 1004,0 58 0 0,0
09.08.2018 23:00:00 20,6 15,2 19,8 23,4 24,7 19,2 38 20 61 33 ZZW 1004,3 50 0 0,0
09.08.2018 22:00:00 21,1 18,5 19,9 23,7 24,8 19,2 16 9 43 23 ZZW 1004,5 14 0 0,0
09.08.2018 21:00:00 21,3 19,2 20,2 24,2 24,9 19,2 19 11 35 19 Z 1004,5 17 0 0,0
09.08.2018 20:00:00 20,3 19,0 20,0 24,5 24,9 19,2 11 6 24 13 ONO 1004,7 13 0 0,0
09.08.2018 19:00:00 19,9 18,4 19,5 24,9 24,9 19,2 15 8 30 16 ONO 1005,3 27 0 0,3
09.08.2018 18:00:00 20,5 18,9 20,0 25,4 24,9 19,2 10 6 34 18 NW 1006,6 7 0 0,8
09.08.2018 17:00:00 21,2 18,2 21,6 26,3 24,8 19,2 18 10 30 16 ONO 1007,2 15 0 0,0
09.08.2018 16:00:00 21,4 17,9 21,1 27,4 24,6 19,2 18 10 31 17 O 1009,4 20 1 1,0
09.08.2018 15:00:00 24,7 14,2 25,9 28,7 24,3 19,2 9 5 25 13 OZO 1011,1 61 14 0,0
09.08.2018 14:00:00 25,2 13,3 28,9 28,6 24,1 19,2 16 8 26 14 OZO 1011,7 64 53 0,0
09.08.2018 13:00:00 25,1 13,5 31,1 27,2 23,9 19,2 11 6 26 14 OZO 1012,9 43 59 0,0
09.08.2018 12:00:00 23,6 13,9 29,5 25,7 23,8 19,2 11 6 24 13 ZO 1013,8 33 60 0,0
09.08.2018 11:00:00 22,0 12,4 26,4 24,2 23,8 19,2 14 8 24 13 ZO 1014,7 59 60 0,0
09.08.2018 10:00:00 20,9 14,3 24,2 22,7 23,9 19,2 13 7 20 11 ZO 1014,9 34 60 0,0
09.08.2018 09:00:00 18,7 15,2 21,2 21,4 24,1 19,2 8 5 12 7 ZO 1015,2 23 60 0,0
09.08.2018 08:00:00 15,9 14,7 17,5 20,6 24,2 19,2 10 5 13 7 ZO 1015,6 13 60 0,0
09.08.2018 07:00:00 12,5 12,2 10,7 20,4 24,4 19,2 5 3 8 4 OZO 1015,4 0,2 23 0,0
09.08.2018 06:00:00 13,8 13,6 8,1 20,8 24,6 19,2 4 2 7 4 Z 1015,2 5 0 0,0
09.08.2018 05:00:00 14,5 14,4 8,5 21,2 24,8 19,2 6 3 7 4 ZZO 1015,3 6 0 0,0
09.08.2018 04:00:00 13,8 13,0 9,1 21,7 25,0 19,2 3 1 6 3 Z 1015,5 22 0 0,0
09.08.2018 03:00:00 14,3 13,9 9,9 22,2 25,2 19,2 5 3 6 4 ZZO 1015,6 16 0 0,0
09.08.2018 02:00:00 15,3 13,9 11,4 22,7 25,3 19,2 3 2 6 4 ZO 1015,4 27 0 0,0
09.08.2018 01:00:00 15,8 14,0 14,2 23,0 25,5 19,2 3 1 4 2 ZZW 1015,4 39 0 0,0

tt = temperatuur
td = dauwpunt
tt 5cm = temperatuur 5cm
tt -5cm = temperatuur -5cm
tt -20cm = temperatuur -20cm
tt -100cm = temperatuur -100cm
ff = windsnelheid
fx = windstoten
dd = windrichting
ppp = luchtdruk
vv = zicht
sd = Zonneschijnduur
rr = neerslag

Weerstations in de omgeving